When you browse on this site, cookies collect data to enhance your experience and personalize the content and advertising you see.
Visit our Privacy Policy to learn more. By continuing to use the site, you agree to this use of cookies and data.
  • In Hungary
  • List of Countries
  • For 7 days
  • Water Temperature
  • Satellite Maps
  • Weather Map
  • News
  • Weather Widgets
  • user-avatar
    Login

    Hourly Weather Qimeng

    Today, 20 April, Saturday

    Time Temperature Precipitation Wind Pressure Humidity
    00:00 +21°C° 0 mm 1 mps 697 mmHg 97%
    01:00 +21°C° 0 mm 1 mps 696 mmHg 98%
    02:00 +21°C° 0 mm 1 mps 696 mmHg 98%
    03:00 +21°C° 0 mm 1 mps 696 mmHg 98%
    04:00 +21°C° 0 mm 1 mps 696 mmHg 98%
    05:00 +21°C° 0.1 mm 1 mps 696 mmHg 97%
    06:00 +21°C° 0.1 mm 1 mps 696 mmHg 97%
    07:00 +21°C° 0 mm 1 mps 696 mmHg 96%
    08:00 +21°C° 0.1 mm 1 mps 696 mmHg 96%
    09:00 +22°C° 0.1 mm 1 mps 697 mmHg 96%
    10:00 +22°C° 0.1 mm 1 mps 697 mmHg 95%
    11:00 +23°C° 0.1 mm 1 mps 697 mmHg 92%
    12:00 +24°C° 0.1 mm 1 mps 697 mmHg 88%
    13:00 +23°C° 0 mm 1 mps 696 mmHg 87%
    14:00 +24°C° 0 mm 1 mps 696 mmHg 87%
    15:00 +24°C° 0 mm 1 mps 696 mmHg 86%
    16:00 +25°C° 0 mm 1 mps 696 mmHg 85%
    17:00 +24°C° 0 mm 1 mps 696 mmHg 89%
    18:00 +23°C° 0 mm 1 mps 696 mmHg 92%
    19:00 +22°C° 0 mm 1 mps 696 mmHg 96%
    20:00 +22°C° 0.1 mm 1 mps 696 mmHg 97%
    21:00 +22°C° 0.1 mm 1 mps 697 mmHg 97%
    22:00 +21°C° 0.1 mm 1 mps 697 mmHg 98%
    23:00 +21°C° 1 mm 1 mps 697 mmHg 98%

    Tomorrow, 21 April, Sunday

    Time Temperature Precipitation Wind Pressure Humidity
    00:00 +21°C° 1 mm 1 mps 697 mmHg 98%
    01:00 +21°C° 1 mm 1 mps 697 mmHg 98%
    02:00 +21°C° 0.5 mm 1 mps 697 mmHg 98%
    03:00 +20°C° 0.5 mm 1 mps 697 mmHg 98%
    04:00 +20°C° 0.5 mm 1 mps 697 mmHg 98%
    05:00 +19°C° 0.1 mm 0 mps 697 mmHg 97%
    06:00 +19°C° 0.1 mm 0 mps 697 mmHg 95%
    07:00 +20°C° 0.1 mm 0 mps 698 mmHg 94%
    08:00 +21°C° 0.1 mm 0 mps 698 mmHg 90%
    09:00 +24°C° 0.1 mm 1 mps 698 mmHg 86%
    10:00 +25°C° 0.1 mm 1 mps 699 mmHg 82%
    11:00 +26°C° 0 mm 1 mps 699 mmHg 78%
    12:00 +27°C° 0 mm 1 mps 698 mmHg 74%
    13:00 +29°C° 0 mm 1 mps 698 mmHg 69%
    14:00 +29°C° 0 mm 1 mps 698 mmHg 69%
    15:00 +29°C° 0 mm 1 mps 697 mmHg 68%
    16:00 +29°C° 0 mm 1 mps 697 mmHg 67%
    17:00 +27°C° 0.1 mm 1 mps 697 mmHg 75%
    18:00 +26°C° 0.1 mm 1 mps 697 mmHg 82%
    19:00 +24°C° 0.1 mm 1 mps 697 mmHg 90%
    20:00 +23°C° 0.5 mm 1 mps 697 mmHg 92%
    21:00 +23°C° 0.5 mm 1 mps 698 mmHg 94%
    22:00 +22°C° 0.5 mm 1 mps 698 mmHg 96%
    23:00 +22°C° 2.8 mm 1 mps 698 mmHg 97%

    Day after tomorrow, 22 April, Monday

    Time Temperature Precipitation Wind Pressure Humidity
    00:00 +21°C° 2.8 mm 2 mps 698 mmHg 97%
    01:00 +21°C° 2.8 mm 2 mps 697 mmHg 97%
    02:00 +21°C° 0.9 mm 2 mps 697 mmHg 97%
    03:00 +20°C° 0.9 mm 2 mps 697 mmHg 97%
    04:00 +21°C° 0.9 mm 1 mps 697 mmHg 97%
    05:00 +22°C° 0.1 mm 1 mps 697 mmHg 97%
    06:00 +22°C° 0.1 mm 1 mps 698 mmHg 96%
    07:00 +22°C° 0.1 mm 1 mps 698 mmHg 95%
    08:00 +23°C° 0 mm 1 mps 698 mmHg 91%
    09:00 +25°C° 0 mm 1 mps 699 mmHg 88%
    10:00 +26°C° 0 mm 1 mps 699 mmHg 84%
    11:00 +27°C° 0.3 mm 2 mps 699 mmHg 81%
    12:00 +28°C° 0.3 mm 2 mps 698 mmHg 79%
    13:00 +28°C° 0.3 mm 2 mps 698 mmHg 76%
    14:00 +29°C° 0.9 mm 2 mps 698 mmHg 76%
    15:00 +29°C° 0.9 mm 2 mps 697 mmHg 77%
    16:00 +29°C° 0.9 mm 2 mps 697 mmHg 77%
    17:00 +27°C° 0.4 mm 2 mps 697 mmHg 83%
    18:00 +26°C° 0.4 mm 1 mps 697 mmHg 89%
    19:00 +25°C° 0.4 mm 1 mps 697 mmHg 95%
    20:00 +24°C° 0.8 mm 1 mps 698 mmHg 95%
    21:00 +24°C° 0.8 mm 1 mps 698 mmHg 96%
    22:00 +23°C° 0.8 mm 1 mps 698 mmHg 97%
    23:00 +23°C° 2.6 mm 1 mps 698 mmHg 97%

    23 April, Tuesday

    Time Temperature Precipitation Wind Pressure Humidity
    00:00 +23°C° 2.6 mm 1 mps 698 mmHg 98%
    01:00 +22°C° 2.6 mm 1 mps 697 mmHg 98%
    02:00 +22°C° 0.5 mm 1 mps 697 mmHg 98%
    03:00 +22°C° 0.5 mm 1 mps 697 mmHg 98%
    04:00 +22°C° 0.5 mm 1 mps 697 mmHg 99%
    05:00 +23°C° 0 mm 1 mps 698 mmHg 97%
    06:00 +23°C° 0 mm 1 mps 698 mmHg 96%
    07:00 +24°C° 0 mm 1 mps 699 mmHg 95%
    08:00 +24°C° 0.1 mm 1 mps 699 mmHg 94%
    09:00 +25°C° 0.1 mm 1 mps 699 mmHg 92%
    10:00 +25°C° 0.1 mm 1 mps 700 mmHg 91%
    11:00 +26°C° 0.1 mm 1 mps 699 mmHg 88%
    12:00 +26°C° 0.1 mm 1 mps 699 mmHg 86%
    13:00 +27°C° 0.1 mm 1 mps 698 mmHg 84%
    14:00 +27°C° 0.2 mm 1 mps 698 mmHg 84%
    15:00 +27°C° 0.2 mm 1 mps 698 mmHg 83%
    16:00 +28°C° 0.2 mm 1 mps 697 mmHg 83%
    17:00 +27°C° 0.3 mm 1 mps 697 mmHg 87%
    18:00 +26°C° 0.3 mm 1 mps 697 mmHg 91%
    19:00 +24°C° 0.3 mm 1 mps 697 mmHg 96%
    20:00 +24°C° 6.3 mm 1 mps 698 mmHg 96%
    21:00 +24°C° 6.3 mm 1 mps 698 mmHg 97%
    22:00 +23°C° 6.3 mm 2 mps 698 mmHg 98%
    23:00 +23°C° 3 mm 2 mps 698 mmHg 97%

    24 April, Wednesday

    Time Temperature Precipitation Wind Pressure Humidity
    00:00 +24°C° 3 mm 2 mps 697 mmHg 96%
    01:00 +24°C° 3 mm 2 mps 697 mmHg 95%
    02:00 +24°C° 0.4 mm 2 mps 697 mmHg 95%
    03:00 +24°C° 0.4 mm 2 mps 697 mmHg 95%
    04:00 +24°C° 0.4 mm 2 mps 697 mmHg 95%
    05:00 +24°C° 0 mm 3 mps 697 mmHg 93%
    06:00 +24°C° 0 mm 3 mps 697 mmHg 92%
    07:00 +25°C° 0 mm 3 mps 698 mmHg 90%
    08:00 +26°C° 0 mm 3 mps 698 mmHg 85%
    09:00 +27°C° 0 mm 3 mps 699 mmHg 81%
    10:00 +28°C° 0 mm 4 mps 699 mmHg 76%
    11:00 +29°C° 0 mm 3 mps 699 mmHg 73%
    12:00 +30°C° 0 mm 3 mps 698 mmHg 70%
    13:00 +31°C° 0 mm 3 mps 698 mmHg 67%
    14:00 +30°C° 0.5 mm 3 mps 697 mmHg 68%
    15:00 +30°C° 0.5 mm 4 mps 697 mmHg 70%
    16:00 +30°C° 0.5 mm 4 mps 696 mmHg 71%
    17:00 +28°C° 2.1 mm 3 mps 697 mmHg 78%
    18:00 +27°C° 2.1 mm 2 mps 697 mmHg 85%
    19:00 +25°C° 2.1 mm 1 mps 697 mmHg 91%
    20:00 +25°C° 3.5 mm 1 mps 697 mmHg 91%
    21:00 +24°C° 3.5 mm 1 mps 698 mmHg 91%
    22:00 +24°C° 3.5 mm 1 mps 698 mmHg 91%
    23:00 +24°C° 0.1 mm 1 mps 698 mmHg 92%

    25 April, Thursday

    Time Temperature Precipitation Wind Pressure Humidity
    00:00 +24°C° 0.1 mm 1 mps 697 mmHg 93%
    01:00 +23°C° 0.1 mm 1 mps 697 mmHg 93%
    02:00 +23°C° 1.6 mm 1 mps 697 mmHg 95%
    03:00 +21°C° 1.6 mm 0 mps 697 mmHg 96%
    04:00 +20°C° 1.6 mm 0 mps 696 mmHg 98%
    05:00 +21°C° 0.2 mm 0 mps 697 mmHg 97%
    06:00 +21°C° 0.2 mm 0 mps 698 mmHg 96%
    07:00 +22°C° 0.2 mm 0 mps 698 mmHg 95%
    08:00 +22°C° 0.2 mm 0 mps 698 mmHg 93%
    09:00 +23°C° 0.2 mm 0 mps 699 mmHg 91%
    10:00 +23°C° 0.2 mm 0 mps 699 mmHg 90%
    11:00 +25°C° 0.2 mm 0 mps 699 mmHg 84%
    12:00 +28°C° 0.2 mm 1 mps 699 mmHg 78%
    13:00 +30°C° 0.2 mm 1 mps 698 mmHg 72%
    14:00 +30°C° 0.1 mm 1 mps 698 mmHg 70%
    15:00 +30°C° 0.1 mm 1 mps 698 mmHg 69%
    16:00 +30°C° 0.1 mm 1 mps 698 mmHg 67%
    17:00 +29°C° 0.8 mm 1 mps 698 mmHg 74%
    18:00 +25°C° 0.8 mm 0 mps 698 mmHg 81%
    19:00 +23°C° 0.8 mm 0 mps 698 mmHg 88%
    20:00 +23°C° 0.3 mm 0 mps 698 mmHg 89%
    21:00 +22°C° 0.3 mm 0 mps 698 mmHg 91%
    22:00 +22°C° 0.3 mm 0 mps 699 mmHg 92%
    23:00 +22°C° 0.3 mm 0 mps 698 mmHg 92%
    Show more